User: anonymous   Login
Location: Voyageurs National Park
(48.5020°N, 92.9292°W)
Time: 02:14:03
(UTC-05:00)
Language:

Terra - Orbit

View from above orbital plane
View from above orbital plane
View from above satellite
View from above satellite

Ground track
Ground track

The orbit data is extracted from the following two-line orbital elements,

1 25994U 99068A   15142.87913271  .00000345  00000-0  86675-4 0  9990
2 25994 098.2122 217.7891 0001375 110.2643 249.8672 14.57107703820534
Epoch (UTC): 22 May 2015 21:05:57
Eccentricity: 0.0001375
inclination: 98.2122°
perigee height: 701 km
apogee height: 703 km
right ascension of ascending node: 217.7891°
argument of perigee: 110.2643°
revolutions per day: 14.57107703
mean anomaly at epoch: 249.8672°
orbit number at epoch: 82053

The dashed part of the orbit path shows where the satellite is in the earth's shadow,  

DLR